Find Starlink 5444

NORAD ID: 54768 Int'l Des: 2022-175 Owner: SPXS Country: US Constellation: starlink operational
LEOCIRCULAR

現在のビュー

3D地球を読み込み中...

About Starlink 5444

Starlink 5444 (NORAD 54768) is a starlink constellation satellite (v1.5) launched Dec 17, 2022 by SPXS of US. It operates in LEO, CIRCULAR orbit with a mass of 305.00 kg.

Starlink 5444について

説明を読み込み中...

次回通過

Passes for default location (London). Set your location on the main map for personalized predictions.

高度履歴

Loading altitude history...

軌道要素

1 54768U 22175L 26171.25002315 .00112990 00000-0 54537-2 0 9990
2 54768 53.1604 288.8202 0001949 102.5254 105.0186 15.17784213 5705
Epoch: Jun 20, 2026 • Age: 8 hours

現在のステータス

高度 528.6 km
速度 7.60 km/s
衛星直下点 -45.06°S, 36°E
打ち上げ日 Dec 17, 2022
運用期間 3.5 years
タイプ internet

技術仕様

分類 Payload
質量 305.00 kg
乾燥質量 290.00 kg
総質量 305.00 kg
長さ 0.20 m
直径 2.80 m
スパン 9.00 m
形状 Box + pan
製造者 SPXS
バスタイプ Starlink
フェーズステータス In Orbit
所有者/国 SPXS/US

Most Searched